User: anonymous   Login
Location: Cronhütte
(48.9135°N, 9.6869°E)
Time: 20:24:38
(UTC+00:00)
Language:

Okean 1-7 - Orbit

View from above orbital plane
View from above orbital plane
View from above satellite
View from above satellite

Ground track
Ground track

The orbit data is extracted from the following two-line orbital elements,

1 23317U 94066A   24197.50455715  .00003372  00000-0  32759-3 0  9990
2 23317  82.5345 203.2168 0019965 109.9627 250.3745 14.92184126610484
Epoch (UTC): 15 July 2024 12:06:33
Eccentricity: 0.0019965
inclination: 82.5345°
perigee height: 577 km
apogee height: 605 km
right ascension of ascending node: 203.2168°
argument of perigee: 109.9627°
revolutions per day: 14.92184126
mean anomaly at epoch: 250.3745°
orbit number at epoch: 61048

The dashed part of the orbit path shows where the satellite is in the earth's shadow,  

DLR